Temp
11 11 11 11 12 12 12 13 13 14 14 14 14 14 14 14 14 14 14 14 14 14 15 15 15 14 14 15 16 16 15 15 15 15 15 15 15 15 15 15 15 14 13 13 13
10 11 11 11 12 12 12 12 13 13 14 14 14 14 14 14 14 14 14 14 14 15 15 15 15 14 15 15 16 16 16 16 16 16 16 15 15 15 15 15 15 14 14 12 12
10 11 11 11 12 12 12 13 13 13 14 14 15 15 15 15 15 15 14 14 14 15 15 15 15 14 15 16 16 16 16 16 16 16 16 16 15 15 15 15 15 14 14 13 13
10 11 11 11 12 12 13 13 13 14 14 14 15 15 15 15 15 15 15 15 15 15 15 15 14 14 15 16 16 16 16 16 16 16 16 16 16 15 15 14 15 14 13 14 13
10 11 11 12 12 13 13 13 14 14 14 14 15 15 15 15 15 15 15 15 15 15 15 15 15 15 15 15 16 16 16 16 16 16 16 16 16 15 15 15 15 15 14 14 13
10 11 11 12 12 13 13 14 14 14 14 15 15 15 15 15 15 15 15 15 15 15 15 15 15 15 15 15 15 16 16 16 16 17 16 16 16 16 15 15 15 15 14 14 13
11 11 11 12 12 13 13 14 14 14 15 15 15 15 15 15 15 15 15 15 15 15 15 15 15 15 15 15 15 16 16 16 16 17 17 16 16 16 16 15 14 15 14 14 13
11 11 11 12 12 13 13 14 14 14 15 15 15 15 15 15 15 15 16 15 15 15 15 15 15 15 15 15 16 16 16 17 17 17 17 17 17 16 16 15 15 14 14 14 13
11 11 11 11 12 12 13 13 14 14 15 15 15 15 14 15 15 15 16 15 15 15 14 15 15 15 15 16 16 16 17 17 17 17 17 17 17 17 16 16 15 14 14 14 13
10 11 11 12 12 12 13 13 14 14 14 15 15 14 15 15 15 15 15 15 15 15 15 15 15 15 16 16 17 16 17 17 17 17 17 17 17 17 17 16 15 15 14 13 13
10 11 11 11 12 12 13 13 13 14 14 15 15 15 15 15 15 15 15 15 15 15 15 15 15 16 16 16 17 17 17 17 17 17 17 17 17 17 17 16 16 15 14 13 13
10 10 11 11 11 12 12 13 13 13 14 14 15 15 15 15 15 15 15 15 15 15 14 15 16 16 16 16 17 17 17 17 17 17 17 17 17 17 17 17 16 15 15 13 13
10 10 10 11 11 12 12 12 13 13 13 14 14 14 14 15 15 15 15 15 15 15 15 15 16 16 16 16 17 17 17 17 17 17 17 17 17 17 17 16 16 16 15 14 13
10 10 10 11 11 11 12 12 12 12 13 15 15 15 14 14 14 14 14 14 14 15 15 15 16 16 16 16 16 16 16 16 17 17 17 17 18 17 17 16 16 16 16 15 14
10 10 10 10 11 11 11 11 11 12 13 15 15 15 14 14 14 15 14 14 14 15 15 16 16 16 16 16 16 16 16 16 16 16 17 16 16 17 17 16 16 16 16 15 14
10 10 10 11 10 11 11 11 10 11 12 14 14 14 14 14 14 14 14 13 14 14 15 15 16 16 16 16 16 16 16 16 16 16 16 15 15 16 17 17 17 16 16 15 14
10 10 10 10 10 11 10 10 9 10 13 14 14 14 14 14 14 14 14 13 14 14 15 15 16 16 16 16 16 16 16 16 16 16 17 15 14 17 17 17 17 15 15 15 15
9 10 11 10 10 10 10 9 9 12 14 13 13 14 14 14 13 14 14 13 14 14 15 15 16 16 16 16 16 16 16 16 16 16 16 14 15 16 16 17 17 16 15 15 14
9 10 10 10 10 10 10 8 10 13 13 13 13 13 13 14 14 13 13 14 14 15 15 15 16 16 16 16 16 16 16 16 15 14 14 14 15 16 16 16 17 16 15 14 14
8 9 10 10 10 10 10 9 11 12 13 13 14 14 14 14 14 14 14 14 14 15 15 15 15 16 16 16 16 16 16 15 15 15 15 14 14 15 15 16 16 16 15 14 14
7 8 9 9 9 10 9 10 11 12 12 12 13 14 14 15 14 14 14 15 15 15 15 15 15 15 15 15 16 16 16 15 15 15 16 15 15 15 15 15 15 15 14 14 14
6 7 8 8 9 9 10 10 11 12 12 12 13 13 14 14 15 14 14 15 15 15 15 15 15 15 15 16 16 16 16 15 16 13 14 14 15 15 15 15 15 15 14 14 14
5 6 7 7 8 9 10 11 11 12 12 12 12 13 13 14 14 15 15 15 15 15 15 15 14 14 14 14 15 15 15 15 15 15 15 15 16 15 15 15 15 14 14 14 13
4 5 6 6 7 8 8 10 11 11 11 11 12 12 12 13 14 15 15 15 15 15 15 15 15 15 16 16 15 15 15 15 15 14 14 14 15 15 14 14 14 14 14 13 13
3 4 5 6 6 7 7 8 10 10 10 10 11 12 12 13 13 14 14 15 15 15 15 15 15 15 15 16 16 15 15 15 15 14 14 14 13 13 13 14 14 14 14 13 12
2 3 4 5 5 6 6 8 9 10 10 10 11 12 12 12 13 14 14 15 15 15 15 15 14 15 14 14 14 14 14 14 14 13 13 13 13 12 12 13 13 13 13 13 12
1 2 3 4 4 5 6 6 7 8 9 9 11 11 12 12 13 13 14 15 15 15 15 14 14 14 12 13 13 12 14 13 13 13 12 12 12 12 13 12 12 12 12 12 12
Height
3167 3167 3167 3166 3166 3166 3167 3167 3168 3169 3171 3173 3175 3177 3180 3182 3184 3186 3189 3190 3190 3191 3192 3193 3195 3196 3196 3196 3197 3197 3198 3197 3197 3197 3198 3197 3197 3198 3197 3196 3195 3194 3194 3194 3192
3166 3166 3166 3166 3165 3165 3165 3166 3166 3166 3167 3170 3172 3174 3178 3180 3182 3185 3188 3188 3189 3190 3192 3194 3196 3197 3197 3198 3198 3198 3199 3199 3199 3198 3198 3198 3199 3200 3200 3199 3199 3197 3196 3197 3196
3166 3165 3165 3165 3165 3164 3164 3164 3165 3165 3165 3167 3169 3171 3174 3178 3181 3183 3184 3187 3188 3190 3192 3194 3196 3198 3198 3199 3200 3201 3201 3200 3200 3200 3199 3199 3200 3201 3202 3202 3201 3201 3200 3200 3200
3165 3164 3164 3164 3164 3163 3163 3163 3163 3164 3165 3165 3167 3169 3172 3176 3180 3180 3182 3185 3187 3189 3191 3193 3196 3198 3199 3200 3201 3202 3202 3201 3200 3200 3200 3200 3201 3203 3204 3204 3204 3203 3204 3203 3203
3165 3164 3163 3163 3163 3163 3163 3162 3162 3163 3164 3164 3165 3167 3171 3174 3176 3177 3180 3184 3187 3188 3191 3193 3196 3198 3199 3200 3201 3202 3203 3201 3200 3200 3201 3201 3203 3204 3205 3206 3206 3205 3205 3206 3205
3164 3163 3162 3161 3162 3162 3162 3162 3162 3162 3163 3164 3165 3166 3170 3173 3174 3176 3179 3182 3186 3189 3191 3193 3195 3198 3199 3200 3201 3201 3202 3202 3202 3201 3202 3202 3204 3205 3206 3208 3208 3207 3208 3209 3208
3162 3162 3161 3160 3160 3161 3161 3161 3162 3162 3162 3163 3164 3167 3169 3173 3173 3174 3177 3181 3184 3188 3190 3191 3193 3197 3198 3199 3199 3200 3201 3201 3202 3202 3203 3203 3205 3205 3207 3209 3210 3209 3210 3210 3210
3160 3160 3159 3159 3159 3159 3160 3160 3161 3162 3162 3163 3164 3167 3169 3171 3172 3173 3176 3179 3183 3186 3188 3190 3193 3195 3197 3198 3199 3199 3200 3201 3202 3203 3204 3205 3206 3206 3207 3209 3211 3212 3212 3212 3213
3158 3158 3158 3158 3157 3158 3158 3159 3160 3161 3162 3163 3165 3167 3169 3170 3171 3172 3174 3178 3182 3185 3187 3189 3192 3194 3196 3197 3198 3197 3198 3201 3202 3203 3205 3206 3206 3207 3208 3209 3212 3213 3213 3214 3215
3156 3156 3156 3156 3156 3156 3157 3158 3159 3160 3161 3163 3164 3169 3168 3169 3169 3171 3174 3176 3180 3183 3187 3189 3190 3192 3194 3196 3197 3196 3197 3199 3201 3204 3204 3206 3207 3208 3209 3211 3212 3214 3215 3216 3216
3153 3153 3153 3154 3154 3154 3156 3157 3160 3161 3160 3161 3162 3164 3165 3167 3169 3170 3173 3175 3178 3182 3185 3187 3190 3191 3194 3195 3195 3195 3197 3198 3200 3202 3204 3205 3206 3208 3210 3211 3212 3214 3216 3217 3217
3149 3150 3150 3151 3152 3152 3154 3155 3156 3158 3158 3159 3160 3162 3163 3165 3167 3169 3172 3175 3177 3180 3183 3187 3188 3191 3192 3194 3194 3195 3196 3198 3199 3201 3203 3204 3205 3206 3209 3210 3212 3214 3216 3217 3217
3146 3146 3147 3148 3149 3150 3151 3153 3153 3154 3155 3156 3158 3159 3162 3164 3166 3168 3171 3173 3177 3179 3182 3185 3188 3189 3191 3193 3194 3195 3195 3196 3198 3199 3201 3203 3205 3205 3207 3208 3210 3212 3214 3216 3218
3141 3142 3144 3144 3148 3147 3148 3150 3151 3152 3153 3153 3154 3157 3159 3161 3164 3167 3170 3174 3175 3179 3182 3184 3186 3188 3190 3192 3193 3194 3195 3196 3197 3199 3200 3202 3204 3204 3205 3206 3207 3209 3211 3213 3216
3135 3138 3139 3142 3143 3144 3147 3147 3149 3151 3151 3149 3149 3151 3155 3160 3162 3163 3167 3171 3175 3177 3181 3183 3184 3186 3189 3191 3192 3194 3194 3195 3196 3197 3199 3201 3203 3202 3202 3202 3203 3206 3209 3210 3213
3129 3132 3135 3137 3139 3141 3143 3145 3147 3152 3145 3142 3143 3146 3151 3155 3158 3161 3164 3170 3173 3176 3178 3180 3182 3185 3187 3189 3190 3192 3193 3193 3194 3195 3198 3198 3200 3198 3198 3197 3200 3203 3206 3208 3210
3122 3125 3129 3131 3134 3136 3139 3142 3147 3143 3140 3140 3139 3142 3148 3150 3155 3158 3160 3164 3168 3172 3174 3177 3180 3182 3185 3187 3189 3190 3191 3192 3194 3193 3193 3196 3198 3194 3193 3193 3195 3200 3204 3206 3208
3115 3118 3121 3125 3128 3131 3135 3139 3138 3134 3135 3135 3137 3141 3144 3148 3152 3154 3158 3161 3165 3168 3172 3175 3179 3180 3182 3184 3186 3188 3190 3190 3191 3191 3193 3194 3193 3192 3191 3190 3191 3194 3200 3203 3205
3106 3110 3114 3117 3121 3125 3129 3129 3126 3129 3131 3133 3135 3138 3140 3144 3148 3151 3155 3157 3161 3164 3170 3171 3175 3176 3179 3181 3185 3186 3188 3190 3190 3191 3192 3191 3191 3190 3189 3188 3188 3191 3194 3199 3202
3098 3101 3105 3109 3113 3117 3120 3117 3121 3126 3128 3129 3131 3133 3135 3139 3144 3148 3151 3153 3157 3162 3167 3169 3173 3174 3175 3178 3180 3182 3185 3188 3189 3190 3189 3189 3189 3188 3188 3187 3187 3188 3191 3195 3199
3090 3093 3096 3101 3105 3108 3105 3108 3116 3121 3124 3127 3127 3128 3131 3133 3138 3142 3146 3150 3154 3158 3163 3166 3169 3172 3173 3174 3176 3179 3181 3184 3186 3188 3187 3188 3188 3187 3187 3187 3187 3188 3189 3193 3196
3082 3085 3087 3091 3097 3095 3096 3103 3111 3115 3119 3122 3123 3124 3126 3129 3133 3138 3142 3147 3149 3153 3157 3162 3165 3167 3170 3171 3173 3175 3177 3180 3182 3186 3185 3186 3186 3184 3185 3185 3186 3187 3188 3191 3193
3073 3077 3080 3083 3084 3086 3091 3097 3104 3108 3112 3117 3119 3121 3123 3126 3131 3134 3139 3143 3146 3150 3153 3158 3161 3164 3167 3171 3170 3172 3174 3176 3178 3180 3181 3183 3181 3180 3181 3182 3183 3184 3185 3186 3188
3067 3069 3071 3073 3076 3080 3085 3090 3095 3100 3105 3109 3113 3116 3120 3123 3126 3129 3133 3137 3142 3146 3150 3154 3156 3158 3161 3163 3166 3167 3169 3171 3174 3176 3177 3177 3177 3177 3177 3178 3179 3180 3180 3181 3183
3059 3060 3062 3063 3068 3074 3079 3083 3088 3092 3096 3102 3106 3110 3115 3120 3122 3125 3128 3132 3136 3140 3144 3148 3151 3153 3156 3158 3160 3163 3165 3167 3169 3172 3173 3173 3172 3174 3174 3174 3174 3175 3175 3176 3177
3051 3054 3056 3059 3061 3067 3072 3075 3080 3086 3089 3094 3099 3104 3111 3113 3119 3122 3125 3127 3130 3135 3138 3141 3144 3148 3150 3153 3155 3158 3160 3164 3166 3167 3168 3169 3169 3170 3170 3170 3170 3170 3170 3171 3172
3045 3048 3050 3053 3056 3061 3065 3071 3076 3080 3084 3089 3094 3099 3103 3109 3115 3119 3121 3125 3127 3129 3132 3136 3139 3143 3147 3149 3152 3156 3157 3159 3161 3162 3163 3164 3166 3165 3164 3164 3164 3165 3166 3167 3168
Wind_Speed
1 1 1 1 2 3 4 8 12 17 19 21 21 19 17 16 15 13 10 9 6 5 5 6 6 2 5 8 9 9 13 11 8 4 1 3 6 11 9 10 14 15 15 14 16
1 0 0 1 2 2 2 3 6 11 16 19 21 21 19 17 15 13 13 12 10 9 8 9 7 5 3 5 10 11 12 10 8 2 3 6 6 10 10 13 11 12 16 16 18
2 1 1 1 1 2 2 2 4 7 10 15 18 19 19 18 16 14 14 13 12 10 10 10 9 7 5 5 10 8 11 8 6 6 5 7 9 9 10 11 17 10 12 16 16
4 2 1 2 2 2 2 2 3 5 7 10 14 16 17 17 13 18 18 16 13 11 13 12 10 8 5 3 5 5 6 8 7 7 4 6 10 13 9 9 17 15 10 13 15
5 4 2 3 2 3 2 2 3 3 6 8 11 15 16 17 17 14 18 17 16 15 15 15 13 10 7 3 1 2 2 5 5 6 5 6 8 9 9 10 16 18 12 11 13
6 5 4 3 3 3 3 3 3 3 5 8 10 14 15 16 15 13 18 17 17 18 18 18 17 14 9 6 8 7 5 2 1 1 4 4 8 6 6 10 14 18 16 12 10
7 6 5 4 4 4 4 4 4 4 6 8 10 14 15 13 11 12 18 20 20 19 18 19 20 15 11 10 14 13 8 3 4 3 1 6 5 3 5 9 12 16 16 11 10
8 8 6 6 5 5 5 5 5 6 7 9 11 16 17 10 10 11 15 20 21 21 19 19 16 14 14 11 8 8 4 8 9 8 6 5 3 4 5 6 10 12 11 10 10
8 8 7 6 6 6 6 5 6 7 8 10 12 14 13 11 12 12 15 20 21 20 19 16 11 12 11 9 4 3 8 11 13 10 9 9 3 4 6 6 7 9 9 9 9
10 9 8 7 8 7 8 7 7 8 9 12 14 14 11 12 14 16 17 20 24 23 19 15 13 13 12 7 4 6 10 15 12 14 12 11 10 3 6 6 7 7 6 8 9
12 10 9 8 9 8 9 9 8 8 11 14 14 14 12 13 14 17 20 22 24 22 19 15 15 15 9 7 5 4 7 10 10 10 13 14 14 10 8 8 10 11 10 8 8
13 12 11 9 10 9 9 10 10 10 11 15 12 18 12 17 17 20 21 22 22 20 17 16 15 12 10 6 6 4 3 6 11 7 5 11 13 12 11 10 10 11 12 11 10
15 14 12 11 11 10 10 10 10 11 11 15 17 17 13 16 19 20 20 19 19 19 19 15 14 12 9 5 7 6 6 7 10 12 7 7 15 16 13 15 14 14 17 15 11
17 15 14 14 12 12 11 10 8 8 7 14 19 19 17 15 18 19 19 17 19 18 16 15 14 12 9 7 9 6 7 8 7 8 5 13 13 19 16 18 18 18 17 17 15
19 17 15 15 14 13 12 10 8 5 3 10 22 21 21 21 12 22 21 21 20 20 17 11 15 14 9 8 8 6 7 5 5 6 8 13 10 14 19 22 22 24 16 18 17
21 19 17 17 16 16 13 11 10 6 8 8 20 25 28 25 14 19 25 22 22 18 16 14 14 13 12 10 7 4 3 9 9 7 6 9 14 12 21 21 21 25 21 19 18
23 22 19 18 19 19 16 16 8 8 7 10 19 27 30 29 22 23 28 30 23 20 19 17 15 15 15 12 10 7 3 3 4 4 1 6 6 9 7 17 21 23 23 21 20
25 24 22 21 22 22 20 22 12 9 16 5 16 24 29 29 25 26 29 33 26 20 21 15 14 16 15 16 11 10 5 2 3 2 1 5 5 4 8 9 17 18 25 25 20
26 26 25 25 24 26 26 28 18 15 10 19 12 22 27 29 25 25 30 33 33 24 12 19 13 19 17 18 16 11 10 6 2 2 2 2 4 7 7 7 12 17 24 27 21
24 25 27 27 27 29 31 34 29 26 10 16 15 20 26 31 26 28 25 29 32 30 21 11 14 16 19 17 17 16 14 4 3 2 3 1 4 5 6 3 2 12 21 25 20
23 23 27 27 29 33 40 40 36 27 24 14 13 18 19 28 35 26 20 14 28 28 27 15 11 15 16 12 18 17 14 8 6 4 3 3 1 2 6 3 2 6 15 23 19
23 21 24 26 32 40 43 39 35 35 26 23 13 13 18 24 31 27 27 25 16 27 29 28 9 13 16 15 17 16 16 15 9 6 9 6 11 9 5 4 4 8 13 20 19
22 22 24 26 36 41 40 39 36 36 36 27 23 13 10 18 21 32 29 24 14 20 24 28 14 10 7 12 15 17 18 17 15 13 13 8 9 13 15 12 10 10 14 17 24
20 18 25 29 34 36 38 38 39 37 35 36 30 26 18 12 20 18 24 32 29 24 19 19 22 23 19 23 20 24 23 20 16 12 11 15 18 17 14 12 13 14 16 25 26
21 22 22 23 33 35 32 29 38 39 35 29 34 32 22 22 20 15 22 23 25 28 29 26 23 26 25 26 25 25 25 19 18 14 10 12 15 11 15 18 19 19 21 25 29
21 23 24 25 25 37 29 35 31 38 35 37 33 29 26 26 25 24 18 19 20 22 24 26 19 25 22 20 18 23 21 17 14 14 14 13 18 16 13 14 17 17 16 16 18
22 23 23 24 25 29 36 28 29 26 31 27 28 29 28 29 23 18 22 23 21 17 22 23 22 23 13 21 19 13 20 17 13 12 9 9 11 15 18 22 22 19 19 20 22
Wind_Direction
93 142 202 215 218 223 217 218 221 223 222 223 222 221 219 215 215 211 198 203 209 185 179 179 173 153 68 63 82 101 77 63 30 52 84 203 106 83 78 74 81 83 93 93 91
5 155 183 208 206 215 219 215 218 218 219 220 221 221 220 220 220 213 215 213 204 193 193 190 188 155 94 78 70 82 70 60 49 32 143 154 122 80 72 72 75 88 97 105 102
327 304 234 215 218 225 229 211 209 208 213 215 215 217 217 217 218 205 214 205 204 202 201 196 176 164 150 112 90 103 81 73 45 88 84 127 121 95 69 85 86 69 89 102 106
313 297 277 242 212 233 230 217 204 202 197 203 205 206 208 207 209 209 206 206 205 206 202 190 181 191 174 142 102 85 73 49 56 63 114 101 119 110 98 111 97 91 100 99 101
308 296 277 258 229 218 225 222 206 199 187 189 192 195 194 196 205 202 198 197 196 196 201 193 199 204 204 201 254 320 70 35 41 48 94 130 114 131 121 113 102 89 100 108 118
304 294 279 253 241 221 218 216 204 197 182 177 179 185 184 188 201 201 194 187 183 187 195 202 214 216 220 252 273 276 291 311 161 360 59 126 135 136 152 125 109 96 96 99 97
298 292 280 263 242 228 211 214 200 192 182 175 171 172 171 179 188 192 194 188 182 185 191 208 220 223 233 273 269 267 284 224 190 197 210 144 155 117 159 144 128 106 103 111 114
291 287 278 267 247 234 217 211 200 193 186 180 173 172 174 180 188 184 191 191 187 187 196 211 223 235 241 253 267 253 209 156 177 191 204 192 179 154 174 174 152 128 105 105 122
284 281 276 264 251 235 223 211 203 195 191 184 181 180 188 199 196 190 185 188 193 194 204 218 225 226 220 225 235 191 174 173 186 200 205 215 250 180 143 147 182 158 128 95 107
278 274 269 261 253 237 227 215 204 200 197 190 188 183 210 200 192 189 185 181 190 199 206 212 214 209 194 183 134 100 166 178 186 200 211 219 237 242 187 150 173 194 174 130 111
275 268 263 255 251 242 232 224 216 212 205 200 196 201 202 196 188 186 185 182 186 196 198 198 190 180 171 161 115 96 119 176 177 182 211 226 240 253 211 177 172 185 190 167 136
269 266 259 249 248 244 234 229 228 225 219 212 210 208 205 200 193 188 186 183 186 189 187 176 174 169 171 152 144 141 162 163 182 184 209 216 221 231 217 204 175 172 177 187 166
265 260 256 248 241 242 237 230 230 236 236 223 214 212 210 203 199 192 188 188 186 185 178 177 173 173 173 169 167 163 172 219 207 197 194 204 212 226 225 211 191 163 173 190 186
260 256 249 249 237 235 237 234 240 243 246 227 214 206 200 182 195 196 194 189 183 181 186 185 182 183 179 176 179 173 160 159 159 177 187 201 214 228 237 219 204 185 182 181 184
255 251 245 240 237 231 230 229 230 219 267 216 201 195 193 192 198 194 192 193 193 190 187 180 191 189 186 179 166 202 202 199 174 178 199 210 219 232 238 236 222 200 190 179 183
249 245 239 234 233 229 223 215 210 212 245 203 191 194 191 196 197 194 188 190 193 193 194 184 182 191 201 188 174 165 194 225 227 231 220 206 214 240 238 234 229 206 199 183 181
246 242 233 230 226 224 214 202 201 213 217 207 196 194 197 194 195 198 192 185 187 190 200 188 184 191 194 194 189 196 223 163 195 200 227 165 199 237 260 234 235 215 205 195 187
245 239 231 223 221 220 210 198 213 226 213 195 202 199 200 200 200 198 198 193 191 194 197 189 196 197 201 207 206 196 173 153 203 231 145 227 234 239 252 252 216 214 206 200 195
245 238 228 223 217 218 210 202 212 215 223 225 201 198 202 198 199 192 203 207 202 196 186 202 202 209 217 222 216 205 173 168 164 259 259 215 285 278 256 260 235 214 202 203 203
246 237 228 222 214 215 214 218 217 213 208 207 209 202 206 201 199 201 199 213 213 208 201 201 202 211 217 220 224 215 185 159 192 196 281 210 276 272 299 359 3 226 208 204 206
251 238 229 221 213 213 218 222 221 219 218 216 216 210 209 207 204 204 207 211 211 209 206 205 196 191 193 186 189 177 183 189 187 183 280 299 291 347 356 346 221 229 213 207 215
247 236 225 217 210 216 221 221 225 223 222 221 216 202 213 210 206 204 207 213 215 207 203 207 211 174 192 196 199 204 213 209 218 217 211 248 286 294 300 306 224 185 207 214 223
239 234 219 214 213 217 221 222 226 226 224 223 219 204 197 202 204 216 217 215 208 198 205 203 209 177 184 208 211 215 215 218 229 234 223 241 280 289 283 271 266 250 220 225 229
228 226 223 215 217 219 221 221 221 226 227 227 228 231 234 212 203 207 211 224 229 231 217 217 217 215 215 220 217 218 226 227 220 216 236 242 273 276 267 257 250 249 246 235 237
223 218 217 216 214 216 214 220 221 220 226 226 229 231 232 231 217 210 202 212 221 229 233 230 223 225 231 234 236 232 230 221 214 231 245 274 265 262 259 252 254 248 252 246 243
226 218 214 220 218 209 212 213 219 221 226 227 227 232 220 215 221 213 207 207 216 221 227 225 218 221 211 218 214 214 205 204 216 235 241 259 275 277 266 252 250 238 232 234 237
228 225 216 219 222 213 209 205 212 215 220 222 226 225 223 214 203 208 224 220 222 223 226 212 207 190 177 178 178 193 206 220 233 253 249 256 286 287 272 261 257 255 253 251 250